Location: Gleizolles
(44.4833°N, 6.7667°E)
Time: 03:19:33
(UTC+00:00)

Vanguard 1 Rocket - Pass Details

Date: 23 June 2024
Orbit: 650 x 4219 km, 34.3° (Epoch: 15 July)

Event Time Altitude Azimuth Distance (km) Brightness Sun altitude
Rises 04:28:50 0° 269° (W) 6,645 11.2 5.2°
Reaches altitude 10° 04:32:39 10° 266° (W) 6,002 11.0 5.8°
Maximum altitude 04:53:18 61° 193° (SSW) 4,452 10.8 9.2°
Drops below altitude 10° 05:18:14 10° 121° (ESE) 7,028 12.6 13.3°
Sets 05:23:13 0° 118° (ESE) 7,772 12.8 14.1°
